Alexandria, MN

7:08 PM CST on November 22, 2017 (GMT -0600)
Chandler

Weather History for KAXN - September, 2014

Change the Weather History Date:

Monday, September 15, 2014

  Actual Average Record
Temperature  
Mean Temperature 52 °F -  
Max Temperature 61 °F 66 °F 91 °F (1955)
Min Temperature 44 °F 46 °F 32 °F (2011)
Degree Days  
Heating Degree Days 14    
Growing Degree Days 2 (Base 50)    
Moisture  
Dew Point 40 °F    
Average Humidity 68    
Maximum Humidity 93    
Minimum Humidity 38    
Precipitation  
Precipitation 0.00 in - - ()
Sea Level Pressure  
Sea Level Pressure 30.24 in    
Wind  
Wind Speed 6 mph (NW)    
Max Wind Speed 14 mph    
Max Gust Speed -    
Visibility 10 miles    
Events      
Averages and records for this station are not official NWS values.
T = Trace of Precipitation, MM = Missing Value Source: NWS Daily Summary

Daily Weather History Graph

Daily Weather History Graph

Search for Another Location

Airport or City:

Trip Planner

Search our weather history database for the weather conditions in past years. The results will help you decide how hot, cold, wet, or windy it might be!

Date:

Astronomy

Sep. 15, 2014 Rise Set
Actual Time 6:59 AM CDT 7:32 PM CDT
Civil Twilight 6:29 AM CDT 8:02 PM CDT
Nautical Twilight 5:54 AM CDT 8:38 PM CDT
Astronomical Twilight 5:17 AM CDT 9:14 PM CDT
Moon 11:58 PM CDT (9/15) 2:19 PM CDT (9/15)
Length of Visible Light 13h 32m
Length of Day
12h 32m
Waning Gibbous, 54% of the Moon is Illuminated
Sep 15
Waning Gibbous
Sep 15
Last Quarter
Sep 24
New
Oct 1
First Quarter
Oct 8
Full

Hourly Weather History & Observations

Time (CDT) Temp. Windchill Dew Point Humidity Pressure Visibility Wind Dir Wind Speed Gust Speed Precip Events Conditions
12:53 AM 46.9 °F - 44.1 °F 90% 30.19 in 10.0 mi NNW 5.8 mph - N/A   Clear
1:53 AM 46.9 °F - 43.0 °F 86% 30.19 in 10.0 mi North 5.8 mph - N/A   Clear
2:53 AM 46.9 °F - 43.0 °F 86% 30.20 in 10.0 mi NNW 5.8 mph - N/A   Clear
3:53 AM 46.0 °F 43.9 °F 42.1 °F 86% 30.19 in 10.0 mi NNW 4.6 mph - N/A   Clear
4:53 AM 46.9 °F - 43.0 °F 86% 30.20 in 10.0 mi North 5.8 mph - N/A   Partly Cloudy
5:53 AM 46.0 °F 44.8 °F 43.0 °F 89% 30.23 in 10.0 mi NW 3.5 mph - N/A   Clear
6:53 AM 44.1 °F - 42.1 °F 93% 30.25 in 10.0 mi Calm Calm - N/A   Mostly Cloudy
7:53 AM 48.0 °F - 45.0 °F 89% 30.25 in 10.0 mi Calm Calm - N/A   Overcast
8:53 AM 51.1 °F - 45.0 °F 80% 30.26 in 10.0 mi NNE 4.6 mph - N/A   Partly Cloudy
9:53 AM 54.0 °F - 45.0 °F 72% 30.27 in 10.0 mi NW 5.8 mph - N/A   Clear
10:53 AM 55.9 °F - 43.0 °F 62% 30.27 in 10.0 mi NW 8.1 mph - N/A   Scattered Clouds
11:53 AM 55.0 °F - 41.0 °F 59% 30.28 in 10.0 mi NW 9.2 mph - N/A   Overcast
12:53 PM 55.9 °F - 37.9 °F 51% 30.27 in 10.0 mi NNE 11.5 mph - N/A   Overcast
1:53 PM 57.9 °F - 36.0 °F 44% 30.27 in 10.0 mi WNW 8.1 mph - N/A   Scattered Clouds
2:53 PM 59.0 °F - 33.1 °F 38% 30.26 in 10.0 mi NNW 13.8 mph - N/A   Partly Cloudy
3:53 PM 59.0 °F - 33.1 °F 38% 30.24 in 10.0 mi NNW 6.9 mph - N/A   Clear
4:53 PM 59.0 °F - 33.1 °F 38% 30.24 in 10.0 mi NNW 6.9 mph - N/A   Clear
5:53 PM 59.0 °F - 34.0 °F 39% 30.24 in 10.0 mi NW 6.9 mph - N/A   Clear
6:53 PM 55.9 °F - 37.0 °F 49% 30.24 in 10.0 mi WNW 4.6 mph - N/A   Clear
7:53 PM 53.1 °F - 37.0 °F 55% 30.23 in 10.0 mi Calm Calm - N/A   Clear
8:53 PM 48.9 °F - 39.9 °F 71% 30.23 in 10.0 mi South 4.6 mph - N/A   Clear
9:53 PM 45.0 °F 41.8 °F 39.0 °F 80% 30.23 in 10.0 mi SSW 5.8 mph - N/A   Clear
10:53 PM 46.0 °F 43.1 °F 37.9 °F 73% 30.23 in 10.0 mi SSW 5.8 mph - N/A   Clear
11:53 PM 44.1 °F 39.5 °F 37.9 °F 79% 30.22 in 10.0 mi SW 8.1 mph - N/A   Clear